Location: Kelowna
(49.8880°N, 119.4960°W)
Time: 16:08:55
(UTC-07:00)

AO-27 - Pass Details

Date: 13 August 2024
Orbit: 783 x 796 km, 98.8° (Epoch: 14 September)

Event Time Altitude Azimuth Distance (km) Brightness Sun altitude
Exits shadow 21:15:00 - 160° (SSE) 2,814 10.0 -8.8°
Reaches altitude 10° 21:16:09 10° 160° (SSE) 2,357 9.6 -9.0°
Maximum altitude 21:21:22 84° 73° (ENE) 807 7.7 -9.6°
Drops below altitude 10° 21:26:38 10° 346° (NNW) 2,379 11.0 -10.3°
Sets 21:28:58 0° 346° (NNW) 3,313 11.8 -10.6°
